Time,TemperatureF,DewpointF,PressureIn,WindDirection,WindDirectionDegrees,WindSpeedMPH,WindSpeedGustMPH,Humidity,HourlyPrecipIn,Conditions,Clouds,dailyrainin,SoftwareType,DateUTC
2013-06-11 00:06:00,57.6,56.0,25.00,East,95,0.0,-999.0,94,-99.99,,,0.03,weatherlink.com 1.10,2013-06-11 04:06:00,
2013-06-11 00:21:00,57.3,56.0,25.00,ENE,69,0.0,-999.0,94,-99.99,,,0.03,weatherlink.com 1.10,2013-06-11 04:21:00,
2013-06-11 00:36:00,57.2,56.0,25.00,East,80,0.0,-999.0,94,-99.99,,,0.03,weatherlink.com 1.10,2013-06-11 04:36:00,
2013-06-11 00:51:00,57.1,55.0,25.00,NE,38,0.0,-999.0,94,-99.99,,,0.03,weatherlink.com 1.10,2013-06-11 04:51:00,
2013-06-11 01:06:00,57.1,55.0,25.00,NE,49,0.0,-999.0,94,-99.99,,,0.00,weatherlink.com 1.10,2013-06-11 05:06:00,
2013-06-11 01:21:00,57.1,55.0,25.00,East,82,0.0,-999.0,94,-99.99,,,0.00,weatherlink.com 1.10,2013-06-11 05:21:00,
2013-06-11 01:36:00,57.0,55.0,25.00,East,79,0.0,-999.0,94,-99.99,,,0.00,weatherlink.com 1.10,2013-06-11 05:36:00,
2013-06-11 01:51:00,57.0,55.0,25.00,North,349,0.0,-999.0,94,-99.99,,,0.00,weatherlink.com 1.10,2013-06-11 05:51:00,
2013-06-11 02:06:00,56.8,55.0,25.00,East,80,2.0,-999.0,94,-99.99,,,0.01,weatherlink.com 1.10,2013-06-11 06:06:00,
2013-06-11 02:21:00,56.6,55.0,25.00,ENE,59,0.0,-999.0,94,-99.99,,,0.01,weatherlink.com 1.10,2013-06-11 06:21:00,
2013-06-11 02:51:00,56.1,54.0,25.00,ENE,60,3.0,-999.0,94,-99.99,,,0.01,weatherlink.com 1.10,2013-06-11 06:51:00,
2013-06-11 03:06:00,55.9,54.0,25.00,South,187,0.0,-999.0,94,-99.99,,,0.01,weatherlink.com 1.10,2013-06-11 07:06:00,
2013-06-11 03:21:00,55.8,54.0,25.00,NNW,344,0.0,-999.0,94,-99.99,,,0.01,weatherlink.com 1.10,2013-06-11 07:21:00,
2013-06-11 03:36:00,55.7,54.0,25.00,SE,140,0.0,-999.0,94,-99.99,,,0.01,weatherlink.com 1.10,2013-06-11 07:36:00,
2013-06-11 03:51:00,55.5,54.0,25.00,South,175,0.0,-999.0,94,-99.99,,,0.01,weatherlink.com 1.10,2013-06-11 07:51:00,
2013-06-11 04:06:00,55.5,54.0,25.00,NNE,29,0.0,-999.0,94,-99.99,,,0.01,weatherlink.com 1.10,2013-06-11 08:06:00,
2013-06-11 04:21:00,55.6,54.0,25.00,NE,38,0.0,-999.0,94,-99.99,,,0.01,weatherlink.com 1.10,2013-06-11 08:21:00,
2013-06-11 04:36:00,55.7,54.0,25.00,ENE,73,0.0,-999.0,94,-99.99,,,0.01,weatherlink.com 1.10,2013-06-11 08:36:00,
2013-06-11 04:51:00,55.7,54.0,25.00,SW,217,0.0,-999.0,94,-99.99,,,0.01,weatherlink.com 1.10,2013-06-11 08:51:00,
2013-06-11 05:06:00,55.8,54.0,25.00,ENE,61,0.0,-999.0,94,-99.99,,,0.01,weatherlink.com 1.10,2013-06-11 09:06:00,
2013-06-11 05:21:00,55.7,54.0,25.00,NNE,30,0.0,-999.0,94,-99.99,,,0.01,weatherlink.com 1.10,2013-06-11 09:21:00,
2013-06-11 05:36:00,55.6,54.0,25.00,ESE,110,0.0,-999.0,94,-99.99,,,0.01,weatherlink.com 1.10,2013-06-11 09:36:00,
2013-06-11 05:51:00,55.6,54.0,25.00,North,355,0.0,-999.0,94,-99.99,,,0.01,weatherlink.com 1.10,2013-06-11 09:51:00,
2013-06-11 06:06:00,55.5,54.0,25.00,NE,49,6.0,-999.0,94,-99.99,,,0.01,weatherlink.com 1.10,2013-06-11 10:06:00,
2013-06-11 06:21:00,55.6,54.0,25.00,NE,38,3.0,-999.0,94,-99.99,,,0.01,weatherlink.com 1.10,2013-06-11 10:21:00,
2013-06-11 06:36:00,55.6,54.0,25.00,North,11,0.0,-999.0,94,-99.99,,,0.01,weatherlink.com 1.10,2013-06-11 10:36:00,
2013-06-11 06:51:00,55.6,54.0,25.00,ENE,57,7.0,-999.0,94,-99.99,,,0.01,weatherlink.com 1.10,2013-06-11 10:51:00,
2013-06-11 07:06:00,55.6,54.0,25.00,ENE,59,0.0,-999.0,94,-99.99,,,0.01,weatherlink.com 1.10,2013-06-11 11:06:00,
2013-06-11 07:21:00,55.6,54.0,25.00,NNE,20,0.0,-999.0,94,-99.99,,,0.01,weatherlink.com 1.10,2013-06-11 11:21:00,
2013-06-11 07:36:00,55.6,54.0,25.00,ENE,67,0.0,-999.0,94,-99.99,,,0.01,weatherlink.com 1.10,2013-06-11 11:36:00,
2013-06-11 07:51:00,55.5,54.0,25.00,ENE,62,0.0,-999.0,94,-99.99,,,0.02,weatherlink.com 1.10,2013-06-11 11:51:00,
2013-06-11 08:06:00,55.6,54.0,25.00,NE,46,3.0,-999.0,94,-99.99,,,0.02,weatherlink.com 1.10,2013-06-11 12:06:00,
2013-06-11 08:21:00,55.7,54.0,25.00,North,355,0.0,-999.0,94,-99.99,,,0.02,weatherlink.com 1.10,2013-06-11 12:21:00,
2013-06-11 08:36:00,55.8,54.0,25.00,NNE,26,1.0,-999.0,94,-99.99,,,0.02,weatherlink.com 1.10,2013-06-11 12:36:00,
2013-06-11 08:51:00,55.9,54.0,25.00,NNW,344,0.0,-999.0,94,-99.99,,,0.02,weatherlink.com 1.10,2013-06-11 12:51:00,
2013-06-11 09:06:00,56.0,54.0,25.00,NNW,331,0.0,-999.0,94,-99.99,,,0.02,weatherlink.com 1.10,2013-06-11 13:06:00,
2013-06-11 09:36:00,56.3,55.0,25.00,ENE,63,0.0,-999.0,94,-99.99,,,0.02,weatherlink.com 1.10,2013-06-11 13:36:00,
2013-06-11 10:06:00,56.5,55.0,25.00,NE,42,0.0,-999.0,94,-99.99,,,0.02,weatherlink.com 1.10,2013-06-11 14:06:00,
2013-06-11 10:21:00,56.7,55.0,25.00,NNE,19,4.0,-999.0,94,-99.99,,,0.02,weatherlink.com 1.10,2013-06-11 14:21:00,
2013-06-11 10:36:00,56.7,55.0,25.00,NNE,18,3.0,-999.0,94,-99.99,,,0.02,weatherlink.com 1.10,2013-06-11 14:36:00,
2013-06-11 10:51:00,57.4,56.0,25.00,East,83,0.0,-999.0,94,-99.99,,,0.02,weatherlink.com 1.10,2013-06-11 14:51:00,
2013-06-11 11:06:00,57.8,56.0,25.00,NNE,33,0.0,-999.0,94,-99.99,,,0.02,weatherlink.com 1.10,2013-06-11 15:06:00,
2013-06-11 11:21:00,57.8,56.0,25.00,North,11,0.0,-999.0,94,-99.99,,,0.02,weatherlink.com 1.10,2013-06-11 15:21:00,
2013-06-11 11:51:00,58.5,57.0,25.00,North,355,0.0,-999.0,94,-99.99,,,0.02,weatherlink.com 1.10,2013-06-11 15:51:00,
2013-06-11 12:06:00,58.6,57.0,25.00,North,349,0.0,-999.0,93,-99.99,,,0.02,weatherlink.com 1.10,2013-06-11 16:06:00,
2013-06-11 12:21:00,58.7,57.0,25.00,NNW,330,2.0,-999.0,93,-99.99,,,0.03,weatherlink.com 1.10,2013-06-11 16:21:00,
2013-06-11 12:36:00,59.3,57.0,25.00,North,355,0.0,-999.0,93,-99.99,,,0.03,weatherlink.com 1.10,2013-06-11 16:36:00,
2013-06-11 12:51:00,59.5,57.0,25.00,ENE,65,0.0,-999.0,91,-99.99,,,0.03,weatherlink.com 1.10,2013-06-11 16:51:00,
2013-06-11 13:06:00,59.4,57.0,25.00,NNE,26,0.0,-999.0,91,-99.99,,,0.03,weatherlink.com 1.10,2013-06-11 17:06:00,
2013-06-11 13:21:00,59.7,57.0,25.00,NE,42,0.0,-999.0,91,-99.99,,,0.03,weatherlink.com 1.10,2013-06-11 17:21:00,
2013-06-11 13:51:00,60.4,58.0,25.00,West,279,0.0,-999.0,90,-99.99,,,0.03,weatherlink.com 1.10,2013-06-11 17:51:00,
2013-06-11 14:06:00,60.5,57.0,25.00,North,5,0.0,-999.0,89,-99.99,,,0.03,weatherlink.com 1.10,2013-06-11 18:06:00,
2013-06-11 14:21:00,60.7,57.0,25.00,NNE,28,1.0,-999.0,88,-99.99,,,0.03,weatherlink.com 1.10,2013-06-11 18:21:00,
2013-06-11 14:36:00,60.8,57.0,25.00,NE,36,0.0,-999.0,88,-99.99,,,0.03,weatherlink.com 1.10,2013-06-11 18:36:00,
2013-06-11 14:51:00,60.8,57.0,25.00,North,11,0.0,-999.0,88,-99.99,,,0.03,weatherlink.com 1.10,2013-06-11 18:51:00,
2013-06-11 15:37:00,61.1,57.0,25.00,NE,46,0.0,-999.0,87,-99.99,,,0.03,weatherlink.com 1.10,2013-06-11 19:37:00,
2013-06-11 15:52:00,61.3,57.0,25.00,NE,51,0.0,-999.0,86,-99.99,,,0.03,weatherlink.com 1.10,2013-06-11 19:52:00,
2013-06-11 16:07:00,60.8,57.0,25.00,NE,52,0.0,-999.0,87,-99.99,,,0.03,weatherlink.com 1.10,2013-06-11 20:07:00,
2013-06-11 16:22:00,61.8,58.0,25.00,NE,52,2.0,-999.0,87,-99.99,,,0.03,weatherlink.com 1.10,2013-06-11 20:22:00,
2013-06-11 16:36:00,61.8,58.0,25.00,NE,51,0.0,-999.0,86,-99.99,,,0.03,weatherlink.com 1.10,2013-06-11 20:36:00,
2013-06-11 16:51:00,61.6,57.0,25.00,North,355,0.0,-999.0,86,-99.99,,,0.03,weatherlink.com 1.10,2013-06-11 20:51:00,
2013-06-11 17:06:00,61.5,57.0,25.00,NE,38,0.0,-999.0,85,-99.99,,,0.03,weatherlink.com 1.10,2013-06-11 21:06:00,
2013-06-11 17:21:00,61.2,57.0,25.00,NNE,13,1.0,-999.0,86,-99.99,,,0.03,weatherlink.com 1.10,2013-06-11 21:21:00,
2013-06-11 17:36:00,60.9,57.0,25.00,NE,43,1.0,-999.0,86,-99.99,,,0.03,weatherlink.com 1.10,2013-06-11 21:36:00,
2013-06-11 17:51:00,60.4,57.0,25.00,ENE,63,0.0,-999.0,87,-99.99,,,0.04,weatherlink.com 1.10,2013-06-11 21:51:00,
2013-06-11 18:06:00,60.2,56.0,25.00,ENE,65,0.0,-999.0,87,-99.99,,,0.04,weatherlink.com 1.10,2013-06-11 22:06:00,
2013-06-11 18:21:00,60.1,57.0,25.00,NE,52,0.0,-999.0,88,-99.99,,,0.04,weatherlink.com 1.10,2013-06-11 22:21:00,
2013-06-11 18:36:00,59.9,57.0,25.00,NE,52,0.0,-999.0,89,-99.99,,,0.04,weatherlink.com 1.10,2013-06-11 22:36:00,
2013-06-11 18:51:00,59.0,56.0,25.00,NE,44,0.0,-999.0,90,-99.99,,,0.04,weatherlink.com 1.10,2013-06-11 22:51:00,
2013-06-11 19:21:00,58.3,56.0,25.00,NNW,345,0.0,-999.0,92,-99.99,,,0.04,weatherlink.com 1.10,2013-06-11 23:21:00,
2013-06-11 19:36:00,57.8,56.0,25.00,South,178,0.0,-999.0,93,-99.99,,,0.04,weatherlink.com 1.10,2013-06-11 23:36:00,
2013-06-11 19:51:00,57.7,56.0,25.00,South,178,0.0,-999.0,93,-99.99,,,0.04,weatherlink.com 1.10,2013-06-11 23:51:00,
2013-06-11 20:06:00,57.5,56.0,25.00,South,176,0.0,-999.0,93,-99.99,,,0.04,weatherlink.com 1.10,2013-06-12 00:06:00,
2013-06-11 20:21:00,57.3,55.0,25.00,ENE,76,0.0,-999.0,93,-99.99,,,0.04,weatherlink.com 1.10,2013-06-12 00:21:00,
2013-06-11 20:36:00,57.2,55.0,25.00,ENE,76,0.0,-999.0,93,-99.99,,,0.04,weatherlink.com 1.10,2013-06-12 00:36:00,
2013-06-11 20:51:00,57.0,55.0,25.00,ENE,76,0.0,-999.0,93,-99.99,,,0.04,weatherlink.com 1.10,2013-06-12 00:51:00,
2013-06-11 21:21:00,56.8,55.0,25.00,ENE,76,0.0,-999.0,94,-99.99,,,0.04,weatherlink.com 1.10,2013-06-12 01:21:00,
2013-06-11 21:36:00,56.9,55.0,25.00,ENE,76,0.0,-999.0,94,-99.99,,,0.04,weatherlink.com 1.10,2013-06-12 01:36:00,
2013-06-11 21:51:00,56.9,55.0,25.00,ENE,76,0.0,-999.0,94,-99.99,,,0.04,weatherlink.com 1.10,2013-06-12 01:51:00,
2013-06-11 22:06:00,56.9,55.0,25.00,ENE,76,0.0,-999.0,94,-99.99,,,0.04,weatherlink.com 1.10,2013-06-12 02:06:00,
2013-06-11 22:21:00,56.8,55.0,25.00,ENE,76,0.0,-999.0,94,-99.99,,,0.04,weatherlink.com 1.10,2013-06-12 02:21:00,
2013-06-11 22:36:00,56.8,55.0,25.00,ENE,76,0.0,-999.0,94,-99.99,,,0.04,weatherlink.com 1.10,2013-06-12 02:36:00,
2013-06-11 22:51:00,56.9,55.0,25.00,ENE,76,0.0,-999.0,94,-99.99,,,0.04,weatherlink.com 1.10,2013-06-12 02:51:00,
2013-06-11 23:06:00,56.7,55.0,25.00,ENE,76,0.0,-999.0,94,-99.99,,,0.04,weatherlink.com 1.10,2013-06-12 03:06:00,
2013-06-11 23:21:00,56.7,55.0,25.00,ENE,76,0.0,-999.0,94,-99.99,,,0.04,weatherlink.com 1.10,2013-06-12 03:21:00,
2013-06-11 23:36:00,56.6,55.0,25.00,ENE,76,0.0,-999.0,94,-99.99,,,0.04,weatherlink.com 1.10,2013-06-12 03:36:00,
2013-06-11 23:51:00,56.3,55.0,25.00,ENE,76,0.0,-999.0,94,-99.99,,,0.04,weatherlink.com 1.10,2013-06-12 03:51:00,